Date String (YYYY-MM-DD hh:mm:ss) UTC,Instrument flags,absolute air pressure of the measurement (hPa),sample flow rate (lpm),inlet stack bypass flow (lpm),air temperature of the measurement (°C),ambient temperature measured by the external sensor (°C),aerosol sample conditioner tube jacket temperature (°C),OPC LED temperature (°C),internal box temperature (°C),relative humidity of the measurement (%),span deviation,mass concentration of particles derived from Lorenz-Mie calculation of OPC scattering (μg/m³),mass concentration of particles derived from Lorenz-Mie calculation of OPC scattering (μg/m³),mass concentration of particles derived from Lorenz-Mie calculation of OPC scattering (μg/m³)
DateTimeUTC,F1_M11,P_M11,Q1_M11,Q2_M11,T1_M11,T2_M11,T3_M11,T4_M11,T5_M11,U1_M11,ZSPAN_M11,X0_M11,X2_M11,X1_M11
2024-03-13 08:00:00,SystemResetWarning,0821.9,5.01,000.00,021.8,020.9,000.0,030.4,023.6,21.4,0000.0,0008.93,0003.54,0002.28
2024-03-13 08:01:00,SystemResetWarning,0821.9,5.00,000.00,021.8,020.9,000.0,030.4,023.6,21.4,0000.0,0008.94,0003.53,0002.28
2024-03-13 08:02:00,SystemResetWarning,0821.9,5.00,000.00,021.8,020.9,000.0,030.4,023.6,21.5,0000.0,0009.06,0003.54,0002.25
2024-03-13 08:03:00,SystemResetWarning,0821.9,5.00,000.00,021.8,021.0,000.0,030.4,023.7,21.5,0000.0,0009.02,0003.55,0002.23
2024-03-13 08:04:00,SystemResetWarning,0822.0,5.00,000.00,021.8,021.0,000.0,030.4,023.7,21.5,0000.0,0008.91,0003.55,0002.21
2024-03-13 08:05:00,SystemResetWarning,0822.0,4.99,000.00,021.8,021.0,000.0,030.4,023.6,21.4,0000.0,0008.73,0003.55,0002.22
2024-03-13 08:06:00,SystemResetWarning,0822.0,5.00,000.00,021.8,021.0,000.0,030.4,023.6,21.5,0000.0,0008.61,0003.52,0002.21
2024-03-13 08:07:00,SystemResetWarning,0822.0,5.01,000.00,021.8,021.0,000.0,030.4,023.6,21.5,0000.0,0008.71,0003.52,0002.20
2024-03-13 08:08:00,SystemResetWarning,0822.0,5.01,000.00,021.8,021.0,000.0,030.4,023.7,21.5,0000.0,0009.05,0003.53,0002.20
2024-03-13 08:09:00,SystemResetWarning,0822.0,4.98,000.00,021.8,021.0,000.0,030.4,023.6,21.5,0000.0,0009.05,0003.54,0002.20
2024-03-13 08:10:00,SystemResetWarning,0822.0,5.00,000.00,021.8,021.0,000.0,030.4,023.6,21.6,0000.0,0008.57,0003.56,0002.21
2024-03-13 08:11:00,SystemResetWarning,0821.9,5.00,000.00,021.8,021.0,000.0,030.4,023.6,21.6,0000.0,0008.38,0003.57,0002.21
2024-03-13 08:12:00,SystemResetWarning,0821.9,5.01,000.00,021.8,021.0,000.0,030.4,023.6,21.6,0000.0,0008.44,0003.61,0002.22
2024-03-13 08:13:00,SystemResetWarning,0822.0,5.01,000.00,021.8,021.0,000.0,030.3,023.6,21.6,0000.0,0008.36,0003.60,0002.21
2024-03-13 08:14:00,SystemResetWarning,0822.0,4.99,000.00,021.8,021.0,000.0,030.3,023.6,21.6,0000.0,0008.34,0003.59,0002.22
2024-03-13 08:15:00,SystemResetWarning,0821.9,4.99,000.00,021.8,021.0,000.0,030.3,023.6,21.6,0000.0,0008.29,0003.56,0002.22
2024-03-13 08:16:00,SystemResetWarning,0821.9,4.99,000.00,021.7,021.0,000.0,030.3,023.6,21.7,0000.0,0008.37,0003.56,0002.22
2024-03-13 08:17:00,SystemResetWarning,0821.9,5.01,000.00,021.7,021.0,000.0,030.3,023.6,21.7,0000.0,0008.30,0003.57,0002.23
2024-03-13 08:18:00,SystemResetWarning,0822.0,5.01,000.00,021.7,021.0,000.0,030.3,023.6,21.7,0000.0,0008.22,0003.54,0002.22
2024-03-13 08:19:00,SystemResetWarning,0822.0,5.00,000.00,021.7,021.0,000.0,030.3,023.6,21.7,0000.0,0007.55,0003.48,0002.23
2024-03-13 08:20:00,SystemResetWarning,0821.9,4.99,000.00,021.7,021.0,000.0,030.3,023.6,21.8,0000.0,0007.56,0003.48,0002.22
2024-03-13 08:21:00,SystemResetWarning,0821.9,4.99,000.00,021.7,021.0,000.0,030.3,023.6,21.8,0000.0,0007.62,0003.49,0002.21
2024-03-13 08:22:00,SystemResetWarning,0821.9,5.00,000.00,021.7,021.0,000.0,030.3,023.6,21.8,0000.0,0008.22,0003.51,0002.21
2024-03-13 08:23:00,SystemResetWarning,0821.9,5.01,000.00,021.7,021.0,000.0,030.3,023.6,21.8,0000.0,0008.18,0003.49,0002.20
2024-03-13 08:24:00,SystemResetWarning,0822.0,5.00,000.00,021.7,021.0,000.0,030.3,023.6,21.8,0000.0,0008.10,0003.48,0002.21
2024-03-13 08:25:00,SystemResetWarning,0822.0,5.00,000.00,021.7,021.0,000.0,030.3,023.6,21.8,0000.0,0008.21,0003.51,0002.20
2024-03-13 08:26:00,SystemResetWarning,0821.9,5.00,000.00,021.7,021.0,000.0,030.3,023.6,21.8,0000.0,0008.45,0003.52,0002.20
2024-03-13 08:27:00,SystemResetWarning,0821.9,5.00,000.00,021.7,021.0,000.0,030.3,023.6,21.8,0000.0,0008.61,0003.48,0002.19
2024-03-13 08:28:00,SystemResetWarning,0822.0,5.00,000.00,021.7,021.0,000.0,030.3,023.6,21.8,0000.0,0008.47,0003.48,0002.19
2024-03-13 08:29:00,SystemResetWarning,0821.9,5.00,000.00,021.7,021.0,000.0,030.3,023.6,21.8,0000.0,0008.46,0003.49,0002.20
2024-03-13 08:30:00,SystemResetWarning,0821.9,5.00,000.00,021.7,021.0,000.0,030.3,023.6,21.8,0000.0,0008.42,0003.51,0002.21
2024-03-13 08:31:00,SystemResetWarning,0821.9,5.00,000.00,021.7,021.0,000.0,030.3,023.6,21.8,0000.0,0008.12,0003.48,0002.22
2024-03-13 08:32:00,SystemResetWarning,0821.9,5.01,000.00,021.7,020.9,000.0,030.3,023.5,21.7,0000.0,0007.97,0003.46,0002.21
2024-03-13 08:33:00,SystemResetWarning,0821.8,5.01,000.00,021.7,020.9,000.0,030.3,023.5,21.7,0000.0,0007.41,0003.43,0002.21
2024-03-13 08:34:00,SystemResetWarning,0821.8,5.00,000.00,021.7,020.9,000.0,030.3,023.5,21.7,0000.0,0007.49,0003.44,0002.21
2024-03-13 08:35:00,SystemResetWarning,0821.8,4.98,000.00,021.7,020.9,000.0,030.3,023.5,21.8,0000.0,0007.51,0003.45,0002.23
2024-03-13 08:36:00,SystemResetWarning,0821.9,5.00,000.00,021.7,020.8,000.0,030.3,023.5,21.7,0000.0,0007.67,0003.44,0002.25
2024-03-13 08:37:00,SystemResetWarning,0821.9,5.01,000.00,021.7,020.8,000.0,030.3,023.5,21.7,0000.0,0008.01,0003.46,0002.27
2024-03-13 08:38:00,SystemResetWarning,0821.9,5.00,000.00,021.6,020.8,000.0,030.2,023.4,21.7,0000.0,0007.79,0003.46,0002.28
2024-03-13 08:39:00,SystemResetWarning,0821.9,5.00,000.00,021.6,020.7,000.0,030.2,023.4,21.7,0000.0,0007.88,0003.49,0002.27
2024-03-13 08:40:00,SystemResetWarning,0821.9,5.00,000.00,021.6,020.7,000.0,030.2,023.4,21.8,0000.0,0007.87,0003.48,0002.28
2024-03-13 08:41:00,SystemResetWarning,0821.9,5.00,000.00,021.6,020.7,000.0,030.2,023.4,21.8,0000.0,0007.98,0003.49,0002.27
2024-03-13 08:42:00,SystemResetWarning,0821.9,5.00,000.00,021.6,020.6,000.0,030.2,023.4,21.8,0000.0,0008.45,0003.51,0002.26
2024-03-13 08:43:00,SystemResetWarning,0821.9,4.99,000.00,021.6,020.6,000.0,030.2,023.3,21.9,0000.0,0008.74,0003.54,0002.28
2024-03-13 08:44:00,SystemResetWarning,0821.9,5.00,000.00,021.5,020.6,000.0,030.2,023.3,22.0,0000.0,0008.74,0003.55,0002.29
2024-03-13 08:45:00,SystemResetWarning,0821.9,5.00,000.00,021.5,020.6,000.0,030.2,023.3,22.1,0000.0,0008.68,0003.55,0002.30
2024-03-13 08:46:00,SystemResetWarning,0821.9,5.00,000.00,021.5,020.6,000.0,030.2,023.3,22.1,0000.0,0008.73,0003.55,0002.30
2024-03-13 08:47:00,SystemResetWarning,0821.9,5.00,000.00,021.5,020.6,000.0,030.2,023.3,22.0,0000.0,0008.71,0003.57,0002.32
2024-03-13 08:48:00,SystemResetWarning,0821.9,5.00,000.00,021.5,020.6,000.0,030.1,023.3,22.0,0000.0,0008.09,0003.57,0002.33
2024-03-13 08:49:00,SystemResetWarning,0821.9,5.00,000.00,021.5,020.6,000.0,030.1,023.3,21.9,0000.0,0008.18,0003.60,0002.34
2024-03-13 08:50:00,SystemResetWarning,0821.9,5.00,000.00,021.5,020.7,000.0,030.1,023.3,21.9,0000.0,0008.58,0003.62,0002.36
2024-03-13 08:51:00,SystemResetWarning,0821.9,5.00,000.00,021.5,020.7,000.0,030.1,023.3,22.0,0000.0,0008.75,0003.66,0002.38
2024-03-13 08:52:00,SystemResetWarning,0821.9,5.00,000.00,021.5,020.7,000.0,030.1,023.3,22.0,0000.0,0008.78,0003.67,0002.40
2024-03-13 08:53:00,SystemResetWarning,0821.8,5.00,000.00,021.5,020.7,000.0,030.1,023.3,22.0,0000.0,0008.55,0003.70,0002.43
2024-03-13 08:54:00,SystemResetWarning,0821.8,5.00,000.00,021.5,020.7,000.0,030.1,023.3,22.0,0000.0,0008.23,0003.69,0002.44
2024-03-13 08:55:00,SystemResetWarning,0821.8,4.99,000.00,021.5,020.7,000.0,030.1,023.3,21.8,0000.0,0008.78,0003.70,0002.46
2024-03-13 08:56:00,SystemResetWarning,0821.8,4.98,000.00,021.5,020.6,000.0,030.1,023.3,21.8,0000.0,0009.06,0003.70,0002.50
2024-03-13 08:57:00,SystemResetWarning,0821.8,5.00,000.00,021.5,020.6,000.0,030.1,023.3,21.9,0000.0,0009.08,0003.73,0002.54
2024-03-13 08:58:00,SystemResetWarning,0821.8,5.01,000.00,021.4,020.5,000.0,030.1,023.2,21.9,0000.0,0009.05,0003.71,0002.54
2024-03-13 08:59:00,SystemResetWarning,0821.8,5.01,000.00,021.4,020.5,000.0,030.0,023.2,22.0,0000.0,0009.13,0003.68,0002.54
